Location: Sobotiste
(48.7170°N, 17.4000°E)
Time: 18:14:36
(UTC+02:00)

CUTE-I - Pass Details

Date: 17 March 2026
Orbit: 804 x 818 km, 98.7° (Epoch: 18 April)

Event Time Altitude Azimuth Distance (km) Brightness Sun altitude
Rises 05:07:46 0° 26° (NNE) 3,329 ? -9.4°
Reaches altitude 10° 05:10:42 10° 43° (NE) 2,393 ? -8.9°
Maximum altitude 05:14:38 21° 91° (E) 1,751 ? -8.3°
Drops below altitude 10° 05:18:33 10° 139° (SE) 2,383 ? -7.7°
Sets 05:21:27 0° 155° (SSE) 3,311 ? -7.2°
